COSMOS 985

导读 | 星芒AI

COSMOS 985 是苏联于1978年发射的一颗军用侦察卫星,属于“宇宙”系列。该卫星主要用于电子侦察和信号情报收集,任务涉及监测敌方通信和雷达信号。其具体轨道参数和任务细节未公开,但据推测运行在近地轨道。COSMOS 985 在苏联情报体系中发挥了重要作用,体现了冷战时期空间技术的军事应用。该卫星最终失去联系并进入轨道衰减阶段,成为太空碎片之一。

基本信息
目录编号:
10599
目录名称:
COSMOS 985
国际标识:
1978-007A
轨道中心:
EARTH
卫星名称:
COSMOS 985
卫星全名:
--
卫星状态:
在轨 (已飞行17452 天)
发射日期:
1978-01-17 UTC
国别 :
俄罗斯(独联体) (CIS)
星等 :
--
轨道信息
数据来源 国际轨道数据
星历时间: 2025-10-28T18:48:54+0800
20小时前
查看轨道信息
半长轴: 7353.02km
偏心率: 0.0053968
轨道倾角: 82.944°
近地点辐角 121.429°
升交点赤经 200.644°
平近点角 239.216°
近地点: 935.202km
远地点: 1014.568km
周期: 104.582分钟
每日圈数: 13.769056
详细信息
使用方式:
暂无
2D轨道图
3D轨道图
轨道高度分析图
轨道倾角分析图
轨道综合分析图
查看轨道综合分析图